Back to catalog

STARLINK-6260

AliveCommunicationsVLEO
NORAD 56416·PAYLOAD·🇺🇸 United States

Launched May 4, 2023 from Cape Canaveral Space Force Station

Loading…

Next Passes (next 24 hours)

TLE

FreshSource: CelesTrak SupGP

Epoch: Sep 14, 2026, 22:11 UTC

1 56416C 23061AU  26257.92479167 -.00025556  00000+0 -92563-3 0  2570
2 56416  42.9999 191.1270 0001367 264.4810 238.2374 15.27590739    17

Track STARLINK-6260 in real time with AllMySat

Download on the App Store